N3OZD-10 Weather Reports


time (UTC)temp
F
wind
direction
speed
knots
gust
knots
rain 1hr
in
rain 24hr
in
rain mn
in
humidity
%
barometer
mb
20260510100715 50 109 0.0 0.0 0.01 0.37 0.05 96 1011.4
20260510100218 50 109 0.0 0.0 0.01 0.37 0.05 96 1011.5
20260510095715 50 109 0.0 0.0 0.01 0.37 0.05 96 1011.4
20260510095218 51 109 0.0 0.0 0.01 0.37 0.05 96 1011.4
20260510094715 50 109 0.0 0.0 0.01 0.37 0.05 96 1011.4
20260510094216 51 109 0.0 0.0 0.01 0.37 0.05 96 1011.3
20260510093719 51 109 0.0 0.0 0.01 0.37 0.05 96 1011.2
20260510093220 51 109 0.0 0.0 0.01 0.38 0.05 96 1011.3
20260510092749 52 109 0.0 0.0 0.01 0.38 0.05 96 1011.3
20260510092715 52 109 0.0 0.0 0.01 0.38 0.05 96 1011.3
20260510092216 52 109 0.0 0.0 0.01 0.38 0.05 96 1011.2
20260510091715 52 109 0.0 0.0 0.01 0.38 0.05 96 1011.2
20260510090716 52 109 0.0 0.0 0.00 0.37 0.04 96 1011.1
20260510090215 52 109 0.0 0.0 0.00 0.37 0.04 96 1011.2
20260510085715 52 109 0.0 0.0 0.00 0.37 0.04 96 1011.2
20260510085215 52 109 0.0 0.0 0.00 0.37 0.04 96 1011.3
20260510084715 52 109 0.0 0.0 0.00 0.37 0.04 96 1011.3
20260510084216 52 109 0.0 0.0 0.00 0.37 0.04 96 1011.2
20260510083715 52 109 0.0 0.0 0.00 0.37 0.04 96 1011.2
20260510083215 52 109 0.0 1.7 0.00 0.37 0.04 96 1011.4
20260510082715 52 45 0.0 3.5 0.00 0.37 0.04 96 1011.3
20260510082215 52 64 0.0 3.5 0.00 0.37 0.04 96 1011.3
20260510081716 52 88 0.0 4.3 0.00 0.37 0.04 96 1011.1
20260510081215 52 57 0.0 2.6 0.00 0.37 0.04 96 1010.9
20260510080715 51 102 2.6 3.5 0.00 0.37 0.04 96 1011.1
20260510080215 51 23 0.0 0.9 0.00 0.37 0.04 95 1010.7
20260510075715 51 12 0.0 0.0 0.00 0.37 0.04 95 1010.6
20260510075215 51 12 0.0 0.0 0.00 0.37 0.04 95 1010.6
20260510074715 52 12 0.0 0.0 0.00 0.37 0.04 95 1010.6
20260510074215 52 12 0.0 0.0 0.00 0.37 0.04 95 1010.6
20260510073715 51 12 0.0 0.0 0.01 0.37 0.04 95 1010.5
20260510073216 51 12 0.0 0.0 0.03 0.37 0.04 95 1010.5
20260510072715 51 12 0.0 0.0 0.03 0.37 0.04 95 1010.4
20260510072215 51 12 0.0 0.0 0.03 0.37 0.04 94 1010.4
20260510071715 52 12 0.0 0.0 0.03 0.37 0.04 95 1010.3
20260510071215 52 12 0.0 0.0 0.03 0.37 0.04 95 1010.2
20260510070715 52 12 0.0 0.0 0.03 0.37 0.04 95 1010.2
20260510070217 52 12 0.0 0.0 0.03 0.37 0.04 95 1010.2
20260510065717 52 12 0.0 0.0 0.03 0.37 0.04 94 1010.2
20260510064715 52 12 0.0 1.7 0.03 0.37 0.04 93 1010.0
20260510064216 52 164 0.0 0.0 0.03 0.37 0.04 93 1010.0
20260510063716 53 164 0.0 0.0 0.02 0.36 0.03 93 1010.0
20260510063216 52 164 0.0 0.0 0.00 0.34 0.01 92 1009.8
20260510062715 53 164 0.0 0.0 0.00 0.34 0.01 92 1009.9
20260510062216 53 164 0.0 0.0 0.00 0.34 0.01 92 1009.9
20260510061715 53 164 0.0 0.0 0.00 0.34 0.01 92 1009.9
20260510061215 53 164 0.0 0.0 0.00 0.34 0.01 92 1010.0
20260510060715 53 164 0.0 0.0 0.00 0.34 0.01 91 1010.0
20260510060215 53 164 0.0 0.0 0.00 0.34 0.01 91 1010.1
20260510055715 53 164 0.0 0.0 0.00 0.34 0.01 90 1010.2
20260510055219 54 164 0.0 0.0 0.00 0.34 0.01 90 1010.1
20260510054715 54 164 0.0 0.0 0.00 0.34 0.01 90 1010.1
20260510054215 54 164 0.0 0.0 0.00 0.34 0.01 90 1010.2
20260510053925 54 164 0.0 0.0 0.00 0.34 0.01 90 1010.2
20260510053715 54 164 0.0 0.0 0.00 0.34 0.01 90 1010.2
20260510053347 54 164 0.0 0.0 0.00 0.34 0.01 90 1010.2
20260510053215 54 164 0.0 0.0 0.00 0.34 0.01 90 1010.2
20260510052715 54 164 0.0 0.0 0.00 0.34 0.01 90 1010.2
20260510052218 54 164 0.0 0.0 0.00 0.34 0.01 89 1010.1
20260510051715 54 164 0.0 0.0 0.00 0.34 0.01 89 1010.2
20260510051215 54 164 0.0 0.0 0.00 0.34 0.01 88 1010.3
20260510050715 55 164 0.0 0.0 0.00 0.34 0.01 88 1010.3
20260510050221 55 164 0.0 0.0 0.01 0.34 0.01 88 1010.3
20260510045715 55 164 0.0 0.0 0.01 0.34 0.01 88 1010.4
20260510045215 55 164 0.0 0.0 0.01 0.34 0.01 87 1010.4
20260510044715 55 164 0.0 0.0 0.01 0.34 0.01 87 1010.3
20260510044216 55 164 0.0 0.0 0.01 0.34 0.01 87 1010.3
20260510043719 55 164 0.0 0.0 0.01 0.34 0.01 87 1010.4
20260510043215 56 164 0.0 0.0 0.01 0.34 0.01 87 1010.4
20260510042716 55 164 0.0 0.0 0.01 0.34 0.01 87 1010.4
20260510042218 56 164 0.0 0.0 0.01 0.34 0.01 87 1010.4
20260510041715 56 164 0.0 0.0 0.01 0.34 0.01 87 1010.3
20260510041215 56 164 0.0 0.0 0.01 0.34 0.01 87 1010.4
20260510040715 56 164 0.0 0.0 0.01 0.34 0.01 87 1010.4
20260510040220 56 164 0.0 0.0 0.00 0.33 0.00 87 1010.4
20260510035716 56 164 0.0 0.0 0.00 0.33 0.00 87 1010.4
20260510035217 56 164 0.0 0.0 0.00 0.33 0.00 87 1010.4
20260510034715 56 164 0.0 0.0 0.00 0.33 0.33 87 1010.4
20260510034215 55 164 0.0 0.0 0.00 0.33 0.33 87 1010.3
20260510033720 56 164 0.0 0.0 0.00 0.33 0.33 86 1010.4
20260510033220 56 164 0.0 0.0 0.00 0.33 0.33 86 1010.3
20260510032717 56 164 0.0 0.0 0.00 0.33 0.33 85 1010.3
20260510032218 56 164 0.0 0.0 0.00 0.33 0.33 85 1010.3
20260510031716 56 164 0.0 0.0 0.00 0.33 0.33 85 1010.3
20260510031216 56 164 0.0 0.0 0.00 0.33 0.33 85 1010.3
20260510030720 56 164 0.0 0.0 0.02 0.33 0.33 84 1010.3
20260510030217 57 164 0.0 0.0 0.02 0.33 0.33 83 1010.2
20260510025716 57 164 0.0 0.0 0.02 0.33 0.33 83 1010.2
20260510025219 57 164 0.0 0.0 0.02 0.33 0.33 83 1010.2
20260510024716 57 164 0.0 0.0 0.02 0.33 0.33 82 1010.1
20260510024216 58 164 0.0 0.0 0.02 0.33 0.33 82 1010.1
20260510023716 58 164 0.0 0.0 0.02 0.33 0.33 82 1010.0
20260510023217 58 164 0.0 0.0 0.02 0.33 0.33 81 1010.1
20260510022716 58 164 0.0 0.0 0.02 0.33 0.33 81 1010.1
20260510022216 58 164 0.0 0.0 0.02 0.33 0.33 80 1010.1
20260510021717 58 164 0.0 0.0 0.02 0.33 0.33 81 1010.1
20260510021216 59 164 0.0 0.0 0.02 0.33 0.33 80 1010.1
20260510020719 58 164 0.0 0.0 0.00 0.31 0.31 80 1010.1
20260510020216 59 164 0.0 0.0 0.00 0.31 0.31 80 1010.2
20260510015715 59 164 0.0 0.0 0.00 0.31 0.31 80 1010.1
20260510015216 59 164 0.0 0.0 0.00 0.31 0.31 79 1010.1
20260510014718 59 164 0.0 0.0 0.00 0.31 0.31 79 1010.0
20260510014216 59 164 0.0 0.0 0.00 0.31 0.31 79 1010.0
20260510013715 59 164 0.0 0.0 0.00 0.31 0.31 79 1009.9
20260510013217 60 164 0.0 0.0 0.00 0.31 0.31 78 1009.8
20260510012717 60 164 0.0 0.0 0.00 0.31 0.31 78 1009.7
20260510012216 60 164 0.0 0.0 0.00 0.31 0.31 78 1009.7
20260510011717 59 164 0.0 0.0 0.00 0.31 0.31 78 1009.6
20260510011216 60 164 0.0 0.0 0.00 0.31 0.31 78 1009.5
20260510010716 60 164 0.0 0.0 0.00 0.31 0.31 77 1009.5
20260510010216 60 164 0.0 0.0 0.00 0.31 0.31 76 1009.5
20260510005716 61 164 0.0 0.0 0.00 0.31 0.31 76 1009.5
20260510005219 61 164 0.0 0.0 0.00 0.31 0.31 75 1009.4
20260510004716 61 164 0.0 0.0 0.00 0.31 0.31 74 1009.4
20260510004216 61 164 0.0 0.0 0.00 0.31 0.31 74 1009.3
20260510003716 61 164 0.0 0.0 0.00 0.31 0.31 74 1009.3
20260510003216 61 164 0.0 0.0 0.00 0.31 0.31 73 1009.3
20260510002716 61 164 0.0 0.0 0.00 0.31 0.31 73 1009.2
20260510002216 61 164 0.0 0.0 0.00 0.31 0.31 72 1009.2
20260510001717 61 164 0.0 0.0 0.00 0.31 0.31 72 1009.2
20260510001216 62 164 0.0 0.0 0.00 0.31 0.31 71 1009.2
20260510000717 63 164 0.0 0.0 0.00 0.31 0.31 71 1009.2
20260510000216 62 164 0.0 0.0 0.00 0.31 0.31 70 1009.2
20260509235716 63 164 0.0 0.0 0.00 0.31 0.31 70 1009.1
20260509235216 63 164 0.0 0.0 0.00 0.31 0.31 69 1009.1
20260509234716 63 164 0.0 0.9 0.00 0.31 0.31 69 1009.0
20260509234216 64 164 0.9 1.7 0.00 0.31 0.31 69 1009.0
20260509233716 64 174 0.0 1.7 0.00 0.31 0.31 69 1009.0
20260509233216 64 177 0.0 2.6 0.00 0.33 0.31 68 1009.0
20260509232716 64 133 1.7 4.3 0.00 0.33 0.31 68 1009.0
20260509232216 64 140 0.0 2.6 0.00 0.33 0.31 68 1008.9
20260509231717 64 177 0.0 5.2 0.00 0.33 0.31 68 1008.9
20260509231216 65 165 0.9 5.2 0.00 0.33 0.31 66 1008.9
20260509230716 65 158 1.7 4.3 0.00 0.33 0.31 66 1008.8
20260509230219 65 191 0.9 4.3 0.00 0.33 0.31 66 1008.7
20260509225716 65 158 3.5 4.3 0.00 0.33 0.31 66 1008.6
20260509225216 65 172 0.9 4.3 0.00 0.33 0.31 65 1008.6
20260509224716 66 147 2.6 3.5 0.00 0.33 0.31 65 1008.7
20260509224217 66 191 0.0 0.0 0.00 0.33 0.31 65 1008.6
20260509223717 65 191 0.0 3.5 0.00 0.33 0.31 64 1008.7
20260509223217 65 174 1.7 4.3 0.00 0.36 0.31 64 1008.7
20260509222717 66 178 1.7 5.2 0.00 0.36 0.31 63 1008.7
20260509222216 66 195 0.0 3.5 0.00 0.36 0.31 63 1008.6
20260509221716 67 174 0.0 2.6 0.00 0.36 0.31 62 1008.8
20260509221216 66 142 1.7 3.5 0.00 0.36 0.31 62 1008.8
20260509220716 67 265 0.0 0.0 0.00 0.36 0.31 61 1008.8
20260509220217 67 168 0.0 2.6 0.00 0.36 0.31 62 1008.9
20260509215716 67 174 0.0 3.5 0.00 0.36 0.31 63 1008.9
20260509215216 66 180 0.0 2.6 0.00 0.36 0.31 64 1008.9
20260509214716 66 61 0.0 0.0 0.00 0.36 0.31 65 1008.9
20260509214217 66 61 0.0 3.5 0.00 0.36 0.31 64 1008.9
20260509213716 65 123 3.5 6.1 0.00 0.36 0.31 64 1008.9
20260509213216 66 129 0.9 6.1 0.00 0.37 0.31 64 1008.9
20260509212720 66 158 1.7 7.0 0.00 0.37 0.31 63 1008.9
20260509212216 66 127 2.6 5.2 0.01 0.37 0.31 63 1008.8
20260509211716 66 167 0.0 5.2 0.03 0.37 0.31 63 1008.8
20260509211216 66 147 4.3 7.0 0.03 0.37 0.31 61 1008.7
20260509210716 67 146 0.9 2.6 0.03 0.37 0.31 62 1008.7
20260509210217 67 63 0.9 4.3 0.03 0.37 0.31 60 1008.7
20260509205716 67 140 1.7 1.7 0.03 0.37 0.31 61 1008.6
20260509205216 67 91 0.9 3.5 0.03 0.37 0.31 60 1008.7
20260509204716 67 136 2.6 3.5 0.03 0.37 0.31 60 1008.7
20260509204216 67 151 0.0 0.0 0.03 0.37 0.31 59 1008.8
20260509203716 67 151 0.0 4.3 0.03 0.37 0.31 58 1008.7
20260509203216 67 153 4.3 7.0 0.03 0.37 0.31 58 1008.7
20260509202716 68 146 0.9 2.6 0.03 0.37 0.31 58 1008.7
20260509202216 68 132 1.7 1.7 0.00 0.34 0.28 56 1008.8
20260509201716 68 156 0.0 0.0 0.00 0.34 0.28 57 1008.8
20260509201216 68 156 0.0 0.9 0.00 0.34 0.28 58 1008.8
20260509200717 68 323 0.0 0.0 0.00 0.34 0.28 56 1009.0
20260509200216 68 323 0.0 1.7 0.00 0.34 0.28 57 1009.2
20260509195716 68 303 1.7 1.7 0.00 0.34 0.28 58 1009.2
20260509195216 67 217 0.0 0.0 0.00 0.34 0.28 56 1009.1
20260509194716 67 217 0.0 0.0 0.01 0.34 0.28 57 1009.2
20260509194218 67 217 0.0 0.0 0.01 0.34 0.28 55 1009.3
20260509193716 66 217 0.0 0.0 0.02 0.34 0.28 55 1009.2
20260509193216 67 217 0.0 0.9 0.02 0.36 0.28 56 1009.2
20260509192720 67 247 0.9 0.9 0.03 0.36 0.28 56 1009.4
20260509192216 66 56 0.0 0.0 0.03 0.36 0.28 57 1009.5
20260509191716 66 56 0.0 1.7 0.03 0.36 0.28 58 1009.4
20260509191216 66 180 0.0 1.7 0.03 0.36 0.28 56 1009.3
20260509190716 65 181 0.0 7.0 0.03 0.36 0.28 56 1009.4
20260509190219 65 160 3.5 7.0 0.03 0.36 0.28 57 1009.5
20260509185716 65 129 0.0 3.5 0.03 0.36 0.28 57 1009.7
20260509185218 65 151 1.7 6.1 0.02 0.35 0.27 58 1009.8
20260509184716 65 139 2.6 4.3 0.02 0.35 0.27 56 1009.7
20260509184217 65 143 2.6 4.3 0.01 0.34 0.26 58 1009.9
20260509183718 65 149 1.7 4.3 0.01 0.34 0.26 55 1009.9
20260509183216 64 135 4.3 4.3 0.01 0.36 0.26 57 1010.2
20260509182716 64 91 0.9 2.6 0.00 0.35 0.25 57 1010.3
20260509182218 64 91 0.0 0.0 0.01 0.35 0.25 58 1010.5
20260509181716 64 91 0.0 0.0 0.02 0.35 0.25 58 1010.5
20260509181216 64 91 0.0 0.0 0.04 0.35 0.25 60 1010.6
20260509180716 64 91 0.0 0.0 0.06 0.35 0.25 60 1010.6
20260509180219 63 91 0.0 2.6 0.07 0.35 0.25 60 1010.6
20260509175716 64 95 2.6 2.6 0.07 0.35 0.25 59 1010.6
20260509175216 64 92 0.9 1.7 0.07 0.35 0.25 57 1010.7
20260509174716 64 7 0.0 0.0 0.07 0.35 0.25 58 1010.6
20260509174216 64 7 0.0 0.0 0.07 0.35 0.25 57 1010.6
20260509173717 64 7 0.0 1.7 0.07 0.35 0.25 59 1010.6
20260509173218 64 94 0.0 1.7 0.07 0.35 0.25 59 1010.6
20260509172716 65 28 0.0 2.6 0.07 0.35 0.25 58 1010.7
20260509172216 64 309 0.0 2.6 0.06 0.34 0.24 58 1010.8
20260509171716 64 16 0.9 4.3 0.05 0.33 0.23 57 1010.8
20260509171216 65 11 0.9 2.6 0.02 0.30 0.20 57 1010.7
20260509170716 65 59 0.0 0.0 0.01 0.29 0.19 59 1010.8
20260509170216 66 348 0.0 2.6 0.00 0.28 0.18 57 1010.8
20260509165716 66 330 0.0 2.6 0.00 0.28 0.18 58 1010.8
20260509165216 66 45 0.0 4.3 0.00 0.28 0.18 56 1010.8
20260509164716 66 21 2.6 3.5 0.00 0.28 0.18 57 1010.8
20260509164216 65 8 0.9 3.5 0.00 0.28 0.18 59 1010.8
20260509163716 65 118 0.9 4.3 0.00 0.28 0.18 60 1010.9
20260509163216 64 312 2.6 2.6 0.01 0.29 0.18 62 1010.8
20260509162716 64 320 0.0 1.7 0.01 0.29 0.18 59 1010.9
20260509162216 64 279 0.0 2.6 0.02 0.29 0.18 58 1011.0
20260509161716 63 284 0.0 3.5 0.03 0.29 0.18 59 1011.1
20260509161216 63 344 0.0 1.7 0.03 0.29 0.18 59 1011.0
20260509160716 64 282 0.0 0.0 0.03 0.29 0.18 60 1011.1
20260509160216 64 282 0.0 0.9 0.05 0.29 0.18 59 1011.0
20260509155716 64 319 0.0 0.9 0.05 0.29 0.18 59 1010.9
20260509155216 64 284 0.0 2.6 0.05 0.29 0.18 58 1010.8
20260509154716 65 279 0.0 2.6 0.06 0.29 0.18 57 1010.8
20260509154216 64 298 0.9 2.6 0.06 0.29 0.18 57 1010.8
20260509153716 64 262 0.0 1.7 0.06 0.29 0.18 57 1011.0
20260509153216 64 324 0.9 2.6 0.07 0.28 0.17 58 1011.0
20260509152716 64 300 0.9 2.6 0.07 0.28 0.17 59 1011.1
20260509152218 64 298 0.0 0.0 0.06 0.27 0.16 58 1011.2
20260509151721 64 298 0.0 1.7 0.06 0.26 0.15 60 1011.3
20260509151216 63 244 0.0 0.0 0.06 0.26 0.15 63 1011.4
20260509150716 63 244 0.0 1.7 0.07 0.26 0.15 63 1011.5
20260509150216 62 270 0.0 0.0 0.05 0.24 0.13 62 1011.5
20260509145717 62 270 0.0 0.9 0.06 0.24 0.13 60 1011.6
20260509145216 62 298 0.0 0.0 0.06 0.24 0.13 64 1011.7
20260509144716 62 298 0.0 0.0 0.05 0.23 0.12 62 1011.7
20260509144216 62 298 0.0 0.0 0.05 0.23 0.12 63 1011.7
20260509143717 62 298 0.0 0.0 0.05 0.23 0.12 65 1011.6
20260509143216 62 298 0.0 0.0 0.03 0.21 0.10 61 1011.6
20260509142716 62 298 0.0 0.0 0.03 0.21 0.10 62 1011.6
20260509142217 61 298 0.0 1.7 0.03 0.21 0.10 62 1011.7
20260509141717 61 313 0.0 1.7 0.02 0.20 0.09 63 1011.7
20260509141225 61 316 0.9 2.6 0.02 0.20 0.09 64 1011.7
20260509140717 61 213 0.0 0.9 0.01 0.19 0.08 65 1011.7
20260509140221 61 237 0.0 2.6 0.01 0.19 0.08 64 1011.6
20260509135717 61 233 0.0 0.0 0.00 0.18 0.07 64 1011.6
20260509135217 61 233 0.0 0.0 0.01 0.18 0.07 64 1011.5
20260509134717 61 233 0.0 0.0 0.01 0.18 0.07 64 1011.6
20260509134217 60 233 0.0 1.7 0.01 0.18 0.07 62 1011.5
20260509133716 61 216 0.0 1.7 0.02 0.18 0.07 63 1011.5
20260509132717 61 309 1.7 1.7 0.02 0.18 0.07 63 1011.4
20260509132217 60 293 0.0 1.7 0.02 0.18 0.07 63 1011.5
20260509131717 60 251 0.0 1.7 0.02 0.18 0.07 64 1011.5
20260509131217 60 282 0.0 1.7 0.02 0.18 0.07 64 1011.4
20260509130717 60 261 0.0 4.3 0.02 0.18 0.07 65 1011.4
20260509130217 60 253 0.0 0.0 0.02 0.18 0.07 66 1011.5
20260509125718 59 253 0.0 1.7 0.02 0.18 0.07 65 1011.5
20260509125220 59 274 0.9 3.5 0.01 0.17 0.06 65 1011.6
20260509124717 59 255 0.0 0.0 0.01 0.17 0.06 67 1011.5
20260509124217 59 255 0.0 0.0 0.01 0.17 0.06 68 1011.5
20260509123717 59 255 0.0 0.0 0.00 0.16 0.05 69 1011.5
20260509123217 59 255 0.0 0.0 0.00 0.17 0.05 68 1011.4
20260509122717 59 255 0.0 0.0 0.00 0.17 0.05 69 1011.3
20260509122217 58 255 0.0 0.0 0.00 0.17 0.05 69 1011.3
20260509121717 58 255 0.0 0.0 0.00 0.17 0.05 70 1011.3
20260509121217 58 255 0.0 0.0 0.04 0.17 0.05 69 1011.4
20260509120717 58 255 0.0 0.0 0.04 0.17 0.05 68 1011.5
20260509120217 58 255 0.0 0.0 0.04 0.17 0.05 67 1011.4
20260509115717 58 255 0.0 0.0 0.04 0.17 0.05 68 1011.4
20260509115217 58 255 0.0 0.0 0.04 0.17 0.05 68 1011.4
20260509114717 58 255 0.0 0.0 0.04 0.17 0.05 68 1011.4
20260509114218 58 255 0.0 0.0 0.04 0.17 0.05 68 1011.3
20260509113716 57 255 0.0 0.0 0.04 0.17 0.05 69 1011.3
20260509113217 57 255 0.0 0.0 0.05 0.17 0.05 69 1011.3
20260509112716 57 255 0.0 0.0 0.05 0.17 0.05 69 1011.3
20260509112216 56 255 0.0 0.0 0.05 0.17 0.05 70 1011.2
20260509111718 56 255 0.0 0.0 0.05 0.17 0.05 69 1011.2
20260509111216 56 255 0.0 0.0 0.01 0.13 0.01 69 1011.2
20260509110717 56 255 0.0 0.0 0.01 0.13 0.01 69 1011.2
20260509110220 56 255 0.0 0.0 0.01 0.13 0.01 69 1011.1
20260509105717 56 255 0.0 0.0 0.01 0.13 0.01 69 1011.0
20260509105217 56 255 0.0 0.0 0.01 0.13 0.01 68 1010.9
20260509104716 56 255 0.0 0.0 0.01 0.13 0.01 68 1010.9
20260509104217 56 255 0.0 0.0 0.01 0.13 0.01 68 1010.9
20260509103721 57 255 0.0 0.0 0.01 0.13 0.01 68 1010.9
20260509103217 56 255 0.0 0.0 0.00 0.12 0.00 68 1010.9
20260509102718 56 255 0.0 0.0 0.00 0.12 0.00 67 1011.0
20260509102217 56 255 0.0 0.0 0.00 0.12 0.00 67 1010.9
20260509101717 56 255 0.0 0.0 0.00 0.12 0.00 68 1010.8
20260509101218 56 255 0.0 0.0 0.00 0.12 0.00 68 1010.7